Weather in Verkhniy Zhirim

Russia / Republic of Buryatia     51°19′09″N   107°13′16″E
temp.,
°C
wind,
m/s
gust,
m/s
humid.,
%
clouds,
%
prec.,
mm/h
press.,
hPa
HPBL,
m
25 july, sun
sun2523:00+15n22670 0.0 101020
02:00+13n22740 0.0 101022
05:00+12n22780 0.0 100926
08:00+17n24590 0.0 1009355
11:00+22n33460 0.0 10071143
14:00+25nne44370 0.0 10061916
17:00+25n44353 0.0 10052154
20:00+20nne365746 0.0 1006127
26 july, mon
mon2623:00+17nne346469 0.0 100873
02:00+14nne22735 0.0 100829
05:00+13nne32785 0.0 100933
08:00+18ne245924 0.0 1009326
11:00+23e34438 0.0 10081606
14:00+24e564069 0.0 10061922
17:00+22e4746100 0.0 1006875
20:00+19ese366593 0.0 1007174
27 july, tue
tue2723:00+16ne22747 0.0 100722
02:00+14ne22765 0.0 100718
05:00+13nne22815 0.0 100722
08:00+18ene25625 0.0 1006551
11:00+22ese45495 0.0 10051488
14:00+23e334394 0.0 10031700
17:00+24ene234299 0.0 10021558
20:00+20e116291 0.0 100211
28 july, wed
wed2823:00+19ene225985 0.0 100313
02:00+17ne226288 0.0 100316
05:00+16nne226864 0.0 100336
08:00+19ne125910 0.0 1004276
11:00+25e21450 0.0 10031359
14:00+26ese113798 0.0 10002558
17:00+24e224699 0.0 1000709
20:00+21ne225883 0.0 100031
29 july, thu
thu2923:00+20ene1158100 0.0 100111
02:00+17ne11668 0.0 100111
05:00+16nne2271100 0.0 100011
08:00+20n2360100 0.0 1001269
11:00+23n4452100 0.0 1001867
14:00+19nw7960100 0.0 1002649
17:00+12nw71483100 0.3 1005520
20:00+11nw61394100 4.8 1007594